Lexington Weather

Lexington, Massachusetts, USA

48°F
12/8/2022 3:00pm 
  • Lexington Conditions: Clear
  • Temperature: 48.4°F / 9.1°CColder 1.4°F than last hour.
  • Dew Point: 35.1°FDecreased 0.5°Fsince last hour.
  • Relative Humidity: 60%Increased 2.0% since last hour.
  • Wind: Wind from N N Calm, 10-min avg: 2 mph, gust: 8 mph
  • Barometer: 30.08 inRising 0.02  inHg/hr Rising Slowly
  • Visibility: 10 miles
  • Rain Today: 0.00 in
  •   

Warning: Undefined variable $rc in /homepages/6/d276339138/htdocs/weather/20190804/ssi/nwsProduct.php on line 323

Warning: Undefined variable $rc in /homepages/6/d276339138/htdocs/weather/20190804/ssi/nwsProduct.php on line 325

Warning: Undefined variable $rc in /homepages/6/d276339138/htdocs/weather/20190804/ssi/nwsProduct.php on line 323

Warning: Undefined variable $rc in /homepages/6/d276339138/htdocs/weather/20190804/ssi/nwsProduct.php on line 325

Warning: Undefined variable $rc in /homepages/6/d276339138/htdocs/weather/20190804/ssi/nwsProduct.php on line 323

Warning: Undefined variable $rc in /homepages/6/d276339138/htdocs/weather/20190804/ssi/nwsProduct.php on line 325

Warning: Undefined variable $rc in /homepages/6/d276339138/htdocs/weather/20190804/ssi/nwsProduct.php on line 323

Warning: Undefined variable $rc in /homepages/6/d276339138/htdocs/weather/20190804/ssi/nwsProduct.php on line 325

Warning: Undefined variable $rc in /homepages/6/d276339138/htdocs/weather/20190804/ssi/nwsProduct.php on line 323

Warning: Undefined variable $rc in /homepages/6/d276339138/htdocs/weather/20190804/ssi/nwsProduct.php on line 325

Warning: Undefined variable $rc in /homepages/6/d276339138/htdocs/weather/20190804/ssi/nwsProduct.php on line 323

Warning: Undefined variable $rc in /homepages/6/d276339138/htdocs/weather/20190804/ssi/nwsProduct.php on line 325

Warning: Undefined variable $rc in /homepages/6/d276339138/htdocs/weather/20190804/ssi/nwsProduct.php on line 323

Warning: Undefined variable $rc in /homepages/6/d276339138/htdocs/weather/20190804/ssi/nwsProduct.php on line 325

Regional Weather Roundup
for Boston, MA

        
000
ASUS41 KBOX 031510
RWRBOX

REGIONAL WEATHER ROUNDUP
NATIONAL WEATHER SERVICE BOSTON/NORTON MA
1000 AM EST SAT DEC 03 2022

NOTE:  "FAIR" INDICATES FEW OR NO CLOUDS BELOW 12,000 FEET WITH NO 
SIGNIFICANT WEATHER AND/OR OBSTRUCTIONS TO VISIBILITY.

MAZALL-031600-
EASTERN MASSACHUSETTS
  
CITY           SKY/WX    TMP DP  RH WIND       PRES   REMARKS
BOSTON         CLOUDY    58  48  69 S22G32    30.13F                  
BEVERLY        CLOUDY    58  47  66 S16G30    30.11F                  
LAWRENCE       CLOUDY    58  48  69 S14G26    30.10F                  
BEDFORD        CLOUDY    59  48  67 S22G33    30.09F                  
NORWOOD        CLOUDY    61  49  64 S14G28    30.13F                  
MARSHFIELD       N/A     57  52  82 S21G28    30.17F HAZE             
PLYMOUTH       LGT RAIN  58  51  78 S15G25    30.18F                  
TAUNTON          N/A    N/A N/A N/A MISG      30.18F                  
NEW BEDFORD    CLOUDY    58  53  84 S20G28    30.18F                  
$$

MAZALL-031600-
CAPE COD AND THE ISLANDS
  
CITY           SKY/WX    TMP DP  RH WIND       PRES   REMARKS
FALMOUTH       CLOUDY    59  50  72 S25G35    30.20F                  
HYANNIS        CLOUDY    53  50  89 S15G22    30.22F                  
CHATHAM        CLOUDY    56  49  77 S10G23    30.26F                  
PROVINCETOWN   CLOUDY    56  51  84 S20G30    30.20F                  
NANTUCKET      CLOUDY    58  52  80 S20       30.27F                  
MARTHAS VNYRD  CLOUDY    59  52  77 S20G28    30.23F                  
$$
 
MAZALL-031600-
CENTRAL AND WESTERN MASSACHUSETTS
  
CITY           SKY/WX    TMP DP  RH WIND       PRES   REMARKS
WORCESTER      LGT RAIN  53  49  86 SW21G30   30.08F                  
FITCHBURG      LGT RAIN  55  47  74 S16G26    30.08F                  
ORANGE         RAIN      53  49  86 S17G26    30.05F FOG              
SPRINGFIELD    LGT RAIN  53  51  94 S17G24    30.04F                  
WESTFIELD      LGT RAIN  53  50  89 S16G24    30.05F                  
NORTH ADAMS    RAIN      52  46  80 SW13G25   30.01F                  
PITTSFIELD     LGT RAIN  49  46  90 S15G29    30.00F                  
$$
 
RIZALL-031600-
RHODE ISLAND
  
CITY           SKY/WX    TMP DP  RH WIND       PRES   REMARKS
PROVIDENCE     CLOUDY    58  50  75 S23G37    30.17F                  
NEWPORT        CLOUDY    56  51  84 S21G32    30.18F                  
BLOCK ISLAND   CLOUDY    58  50  75 S24G35    30.20F                  
SMITHFIELD     CLOUDY    57  49  74 SW13G31   30.14F                  
WESTERLY       LGT RAIN  58  51  78 S18G29    30.18F                  
$$
 
CTZALL-031600-
CONNECTICUT
  
CITY           SKY/WX    TMP DP  RH WIND       PRES   REMARKS
BRADLEY INTL   LGT RAIN  54  51  90 S18G26    30.08F FOG              
HARTFORD       LGT RAIN  56  51  84 S15G32    30.09F                  
BRIDGEPORT     NOT AVBL                                               
DANBURY        RAIN      55  50  83 S16G23    30.10F                  
GROTON         LGT RAIN  58  51  78 S25G33    30.16F                  
NEW HAVEN      LGT RAIN  57  53  86 S22G36    30.13F FOG              
CHESTER        LGT RAIN  54  54 100 S15G26    30.14F                  
MERIDEN        LGT RAIN  55  51  86 S15G24    30.10F                  
WILLIMANTIC    LGT RAIN  55  51  86 S15G23    30.13F                  
OXFORD         LGT RAIN  52  51  97 S17G25    30.10F FOG              
$$

MEZ002-015-021-024-NHZ003-005-008-011-012-014-VTZ005-008-031600-
NORTHERN NEW ENGLAND
  
CITY           SKY/WX    TMP DP  RH WIND       PRES   REMARKS
PORTLAND ME    LGT RAIN  50  48  93 S13       30.10F                  
BANGOR ME      CLOUDY    50  44  80 S22G32    30.12F                  
CONCORD NH     LGT RAIN  43  42  97 VRB6      30.07F                  
MANCHESTER NH  LGT RAIN  51  46  83 S13       30.05F                  
NASHUA NH      LGT RAIN  53  53 100 VRB6      30.07F                  
PORTSMOUTH NH  CLOUDY    54  47  78 S12       30.09F                  
JAFFREY NH     LGT RAIN  52  48  86 S14G26    30.04F                  
KEENE NH       LGT RAIN  52  50  93 S8G17       N/A                   
BURLINGTON VT  LGT RAIN  43  39  86 S16G25    29.89F                  
MT. WASHINGTON FRZ RAIN  30  30 100 SW58G75     N/A  VSB 0   WCI  11  
$$

NYZ052-076-031600-
EASTERN NEW YORK
  
CITY           SKY/WX    TMP DP  RH WIND       PRES   REMARKS
ALBANY         RAIN      46  43  89 S18G26    29.98F                  
NEW YORK CITY  LGT RAIN  56  50  80 S16G29    30.12F                  
$$
 
ANZALL-031600-
MARINE OBSERVATIONS
  
STATION/POSITION TIME  TEMP    WIND        PRES    VSBY  WAVE
                       AIR SEA DIR/SP/G                  HT/PER
                 (UTC) (F)     (DEG/KT/KT) (MB)    (MI)  (FT/S)
BOSTON BUOY      1450      51  190/ 23/ 29 1021.5F         3/ 4
BUZZARDS BAY     1400   56     190/ 28/ 31 1024.0F
NANTUCKET SOUND  1450   55     180/ 17/ 19 1024.0
MASS BAY-STELLWA 1304   51 50  160/ 17/ 21 1021.7F  1 7/8  4/ 5
ISLE OF SHOALS   1400   51     170/ 22/ 24 1020.0F
S OF BLOCK IS    1456      56                N/A           7/ 6
$$

......................KEY.........................
  SKY/WX - SKY CONDITION/PRESENT WEATHER
  TMP    - TEMPERATURE IN FAHRENHEIT
  DWPT   - DEWPOINT IN FAHRENHEIT
  RH     - RELATIVE HUMIDITY IN PERCENT
  WIND   - DIRECTION AND SPEED IN MPH
  PRES   - MEAN SEA LEVEL PRESSURE IN INCHES OF HG
  WCI    - WIND CHILL INDEX
  VSB    - VISIBILITY IN MILES
  HX     - HEAT INDEX
  TC     - TEMPERATURE IN CELSIUS
  VRB    - VARIABLE WIND DIRECTION
  N/A    - NOT AVAILABLE
  
      

Other recent Regional Weather Roundups

Thu Dec 8, 2:10pm

Thu Dec 8, 1:10pm

Thu Dec 8, 12:10pm

Thu Dec 8, 11:10am

Thu Dec 8, 10:10am

Thu Dec 8, 9:10am

Thu Dec 8, 8:10am

Thu Dec 8, 7:10am

Thu Dec 8, 6:10am

Thu Dec 8, 5:10am

Thu Dec 8, 4:10am

Thu Dec 8, 3:10am

Thu Dec 8, 2:10am

Thu Dec 8, 1:10am

Thu Dec 8, 12:10am

Wed Dec 7, 11:10pm

Wed Dec 7, 10:10pm

Wed Dec 7, 9:10pm

Wed Dec 7, 8:10pm

Wed Dec 7, 7:10pm

Wed Dec 7, 6:10pm

Wed Dec 7, 5:10pm

Wed Dec 7, 4:10pm

Wed Dec 7, 3:10pm

Wed Dec 7, 2:10pm

Wed Dec 7, 1:10pm

Wed Dec 7, 12:10pm

Wed Dec 7, 11:10am

Wed Dec 7, 10:10am

Wed Dec 7, 9:10am

Wed Dec 7, 8:10am

Wed Dec 7, 7:10am

Wed Dec 7, 6:10am

Wed Dec 7, 5:10am

Wed Dec 7, 4:10am

Wed Dec 7, 3:10am

Wed Dec 7, 2:10am

Wed Dec 7, 1:10am

Wed Dec 7, 12:10am

Tue Dec 6, 11:10pm

Tue Dec 6, 10:10pm

Tue Dec 6, 9:10pm

Tue Dec 6, 8:10pm

Tue Dec 6, 7:10pm

Tue Dec 6, 6:10pm

Tue Dec 6, 5:10pm

Tue Dec 6, 4:10pm

Tue Dec 6, 3:10pm

Tue Dec 6, 2:10pm

Tue Dec 6, 1:10pm

Tue Dec 6, 12:10pm

Tue Dec 6, 11:10am

Tue Dec 6, 10:10am

Tue Dec 6, 9:10am

Tue Dec 6, 8:10am

Tue Dec 6, 7:10am

Tue Dec 6, 6:10am

Tue Dec 6, 5:10am

Tue Dec 6, 4:10am

Tue Dec 6, 3:10am

Tue Dec 6, 2:10am

Tue Dec 6, 1:10am

Tue Dec 6, 12:10am

Mon Dec 5, 11:10pm

Mon Dec 5, 10:10pm

Mon Dec 5, 9:10pm

Mon Dec 5, 8:10pm

Mon Dec 5, 7:10pm

Mon Dec 5, 6:10pm

Mon Dec 5, 5:10pm

Mon Dec 5, 4:10pm

Mon Dec 5, 3:10pm

Mon Dec 5, 2:10pm

Mon Dec 5, 1:10pm

Mon Dec 5, 12:10pm

Mon Dec 5, 11:10am

Mon Dec 5, 10:10am

Mon Dec 5, 9:10am

Mon Dec 5, 8:10am

Mon Dec 5, 7:10am

Mon Dec 5, 6:10am

Mon Dec 5, 5:10am

Mon Dec 5, 4:10am

Mon Dec 5, 3:10am

Mon Dec 5, 2:10am

Mon Dec 5, 1:10am

Mon Dec 5, 12:10am

Sun Dec 4, 11:10pm

Sun Dec 4, 10:10pm

Sun Dec 4, 9:10pm

Sun Dec 4, 8:10pm

Sun Dec 4, 7:10pm

Sun Dec 4, 6:10pm

Sun Dec 4, 5:10pm

Sun Dec 4, 4:10pm

Sun Dec 4, 3:10pm

Sun Dec 4, 2:10pm

Sun Dec 4, 1:10pm

Sun Dec 4, 12:10pm

Sun Dec 4, 11:10am

Sun Dec 4, 10:10am

Sun Dec 4, 9:10am

Sun Dec 4, 8:10am

Sun Dec 4, 7:10am

Sun Dec 4, 6:10am

Sun Dec 4, 5:10am

Sun Dec 4, 4:10am

Sun Dec 4, 3:10am

Sun Dec 4, 2:10am

Sun Dec 4, 1:10am

Sun Dec 4, 12:10am

Sat Dec 3, 11:10pm

Sat Dec 3, 10:10pm

Sat Dec 3, 9:10pm

Sat Dec 3, 8:10pm

Sat Dec 3, 7:10pm

Sat Dec 3, 6:10pm

Sat Dec 3, 5:10pm

Sat Dec 3, 4:10pm

Sat Dec 3, 3:10pm

Sat Dec 3, 2:10pm

Sat Dec 3, 1:10pm

Sat Dec 3, 12:10pm

Sat Dec 3, 11:10am

Sat Dec 3, 9:10am

Sat Dec 3, 8:10am

Sat Dec 3, 7:10am

Sat Dec 3, 6:10am

Sat Dec 3, 5:10am

Sat Dec 3, 4:10am

Sat Dec 3, 3:10am

Sat Dec 3, 2:10am

Sat Dec 3, 1:10am

Sat Dec 3, 12:10am

Fri Dec 2, 11:10pm

Fri Dec 2, 10:10pm

Fri Dec 2, 9:10pm

Fri Dec 2, 8:10pm

Fri Dec 2, 7:10pm

Fri Dec 2, 6:10pm

Fri Dec 2, 5:10pm

Fri Dec 2, 4:10pm

Fri Dec 2, 3:10pm

Fri Dec 2, 2:10pm

Fri Dec 2, 1:10pm

Fri Dec 2, 12:10pm

Fri Dec 2, 11:10am

Fri Dec 2, 10:10am

Fri Dec 2, 9:10am

Fri Dec 2, 8:10am

Fri Dec 2, 7:10am

Fri Dec 2, 6:10am

Fri Dec 2, 5:10am

Fri Dec 2, 4:10am

Fri Dec 2, 3:10am

Fri Dec 2, 2:10am

Fri Dec 2, 1:10am

Fri Dec 2, 12:10am

Thu Dec 1, 11:10pm

Thu Dec 1, 10:10pm

Thu Dec 1, 9:10pm

Thu Dec 1, 8:10pm

Thu Dec 1, 7:10pm

Thu Dec 1, 6:10pm

Thu Dec 1, 5:10pm

Thu Dec 1, 4:10pm

Thu Dec 1, 3:10pm

Meta data:

ID: be9efa74-55e7-4b38-90c2-7413bb556320
Link: https://api.weather.gov/products/be9efa74-55e7-4b38-90c2-7413bb556320